Historical Weather Data

Kanab, UT VWS

Date ET
(Inches)
Rain
(Inches)
Temp °F
Humidity
Avg
Wind MPH
Avg
Solar Wm2
Avg
High Ave Low
05/01/2019 12:00 am 0.164 0.01 62.0 49.8 39.0 54 2.2 345
05/02/2019 12:00 am 0.189 0.00 68.0 53.3 38.0 40 2.4 356
05/03/2019 12:00 am 0.198 0.00 72.0 57.8 41.0 29 2.1 354
05/04/2019 12:00 am 0.202 0.00 76.0 61.4 42.0 29 1.9 351
05/05/2019 12:00 am 0.207 0.00 78.0 63.2 45.0 25 2.2 336
05/06/2019 12:00 am 0.222 0.00 75.0 61.0 45.0 26 2.8 360
05/07/2019 12:00 am 0.155 0.03 68.0 54.3 43.0 48 2.3 272
05/08/2019 12:00 am 0.159 0.01 64.0 54.4 45.0 54 3.1 284
05/09/2019 12:00 am 0.121 0.06 60.0 51.2 45.0 57 2.5 224
05/10/2019 12:00 am 0.081 0.19 62.0 52.7 46.0 69 2.9 128
05/11/2019 12:00 am 0.179 0.00 67.0 55.8 44.0 63 1.9 334
05/12/2019 12:00 am 0.203 0.00 75.0 60.2 43.0 40 1.7 362
05/13/2019 12:00 am 0.223 0.00 79.0 64.0 44.0 33 2.1 364
05/14/2019 12:00 am 0.220 0.00 80.0 65.5 49.0 33 2.2 351
05/15/2019 12:00 am 0.232 0.00 79.0 65.7 50.0 33 3.3 344
05/16/2019 12:00 am 0.222 0.05 73.0 60.3 49.0 42 5.0 319
05/17/2019 12:00 am 0.174 0.01 58.0 49.2 40.0 52 3.9 338
05/18/2019 12:00 am 0.142 0.00 65.0 51.2 34.0 45 2.4 247
05/19/2019 12:00 am 0.088 0.25 57.0 48.3 44.0 55 2.9 159
05/20/2019 12:00 am 0.096 0.05 52.0 42.9 36.0 74 3.0 223
05/21/2019 12:00 am 0.136 0.03 58.0 48.2 41.0 61 4.4 229
05/22/2019 12:00 am 0.086 0.05 54.0 44.1 38.0 71 2.2 164